Regional Weather Roundup
Issued by NWS Sioux Falls, SD

Home | Current Version | Previous Version | Graphics & Text | Print | Product List | Glossary Off
Versions: 1 2 3 4 5 6 7 8 9 10 11 12 13 14 15 16 17 18 19 20 21 22 23 24 25 26 27 28 29 30 31 32 33 34 35 36 37 38 39 40 41 42 43 44 45 46 47 48 49 50

000
ASUS43 KFSD 051210
RWRFSD

WEATHER ROUNDUP FOR SE SOUTH DAKOTA/SW MINNESOTA/NW IOWA
NATIONAL WEATHER SERVICE SIOUX FALLS SD
700 AM CDT SUN JUL 05 2015

NOTE: "FAIR" INDICATES FEW OR NO CLOUDS BELOW 12,000 FEET WITH NO
SIGNIFICANT WEATHER AND OR OBSTRUCTIONS TO VISIBILITY.


SDZ038>040-050-052>070-051300-
SOUTHEAST SOUTH DAKOTA

CITY           SKY/WX    TMP DP  RH WIND       PRES   REMARKS
BROOKINGS      CLOUDY    68  63  83 SE17      29.88F
CHAMBERLAIN    PTCLDY    68  65  92 SE7       29.77R
6HR MIN TEMP:  66; 6HR MAX TEMP:  76;

HURON          CLEAR     68  65  90 SE15      29.79R
6HR MIN TEMP:  68; 6HR MAX TEMP:  73; 6HR PCP:  0.09;

MADISON        LGT RAIN  66  66 100 S15       29.91R
MITCHELL       PTCLDY    71  66  84 SE12      29.83R
6HR MIN TEMP:  69; 6HR MAX TEMP:  73;

SIOUX FALLS    TSTM      68  64  87 CALM      29.93R FOG
6HR MIN TEMP:  68; 6HR MAX TEMP:  71; 6HR PCP:  0.07;

WINNER         FAIR      70  64  81 E8        29.77R
YANKTON        MOCLDY    70  64  83 SW16G32   29.85F
$$

MNZ071-072-080-081-089-090-097-098-051300-
SOUTHWEST MINNESOTA

CITY           SKY/WX    TMP DP  RH WIND       PRES   REMARKS
FAIRMONT       PTSUNNY   63  55  77 S7        29.95R
JACKSON        CLOUDY    66  61  82 S8        29.95S
LUVERNE        CLOUDY    68  63  83 SW5       29.94R
MARSHALL       CLOUDY    70  61  73 SW16      29.88F
6HR MIN TEMP:  68; 6HR MAX TEMP:  72;

MONTEVIDEO     CLOUDY    66  63  88 S9        29.86F
PIPESTONE      LGT RAIN  66  63  88 CALM      29.95S
REDWOOD FALLS  CLOUDY    66  61  84 S10       29.91R
TRACY          CLOUDY    71  63  76 SW18G24   29.92R
WINDOM         CLOUDY    68  61  77 S10       29.93S
WORTHINGTON    CLOUDY    66  59  77 S9        29.94R
$$

IAZ001>003-012>014-020>022-031-032-NEZ013-014-SDZ071-051300-
NORTHWEST IOWA

CITY           SKY/WX    TMP DP  RH WIND       PRES   REMARKS
CHEROKEE       CLOUDY    65  64  94 S5        29.94S
DENISON        CLOUDY    66  63  88 S9G17     29.92R
ESTHERVILLE    CLOUDY    61  60  97 S7        29.95R
LE MARS        CLOUDY    68  64  88 SW5       29.93R
ORANGE CITY    CLOUDY    64  61  88 CALM      29.94R
SHELDON        CLOUDY    66  66 100 S7        29.92R
SIOUX CITY     CLOUDY    68  61  78 SE9       29.92R
6HR MIN TEMP:  67; 6HR MAX TEMP:  69;

SPENCER        CLOUDY    65  59  81 S7        29.94R
6HR MIN TEMP:  63; 6HR MAX TEMP:  66;

STORM LAKE     CLOUDY    64  63  94 S9        29.96R
$$

ABBREVIATIONS USED IN REMARKS
   TC - TEMPERATURE IN CELSIUS
  WCI - WIND CHILL INDEX
   HX - HEAT INDEX
  VSB - VISIBILITY



USA.gov is the U.S. government's official web portal to all federal, state and local government web resources and services.